Voltar ao catálogo

FLOCK 4H 13

AtivoCiênciaSSO
NORAD 66716·PAYLOAD·🇺🇸 United States

Lançado Nov 28, 2025 de Vandenberg Space Force Base

Loading…

Próximas Passagens (próximas 24 horas)

TLE

AtualizadoSource: CelesTrak SupGP

Época: Sep 14, 2026, 22:45 UTC

1 66716C 25276BC  26257.94797454  .00001293  00000+0  57543-4 0  2578
2 66716  97.4147 330.4552 0001539  56.5295 239.5533 15.21550205    19

Acompanhe FLOCK 4H 13 em tempo real com AllMySat

Download on the App Store